Weather in Kuknur

Russia / Mari El Republic     57°13′43″N   49°03′31″E
temp.,
°C
wind,
m/s
gust,
m/s
humid.,
%
clouds,
%
prec.,
mm/h
press.,
hPa
HPBL,
m
16 june, wed
wed1600:00+17sw229072 0.2 101227
03:00+16ene118731 0.2 101111
06:00+19ese358789 0.9 1010139
09:00+24se46695 1.2 1008612
12:00+28s46525 0.0 10061340
15:00+28ssw354796 0.0 10051737
18:00+22nw81281100 1.4 1005341
21:00+16nnw7169212 2.4 1009723
17 june, thu
thu1700:00+12nnw413944 0.0 1012397
03:00+11nnw39956 0.0 1014171
06:00+14nnw488357 0.0 1015314
09:00+18nnw46570 0.0 1016859
12:00+20nw484666 0.0 10162451
15:00+19nw3763100 0.0 1017621
18:00+17nnw596320 0.0 1019792
21:00+12nnw33756 0.0 102137
18 june, fri
fri1800:00+9nw36781 0.0 102289
03:00+7nw410830 0.0 1024174
06:00+11nnw59746 0.0 1025427
09:00+14n56625 0.0 10261026
12:00+18nnw45515 0.0 10261486
15:00+19nw4549100 0.0 10261399
18:00+18wsw2365100 0.0 102599
21:00+14wsw457087 0.0 102666
19 june, sat
sat1900:00+12sw477186 0.0 1025100
03:00+11sw4117046 0.0 1025177
06:00+15wsw5117899 0.0 1024274
09:00+21wsw69705 0.0 1023589
12:00+25w810615 0.0 10211285
15:00+26w711610 0.0 10201937
18:00+24w612670 0.0 1019483
21:00+19w412840 0.0 1020198
20 june, sun
sun2000:00+17w512890 0.0 1020206
03:00+16wnw410930 0.0 1021170
06:00+19wnw48810 0.0 1022242
09:00+24wnw46670 0.0 1021505
12:00+27wnw56580 0.0 10211148
15:00+28w56540 0.0 10201580
18:00+26wsw48690 0.0 1020292
21:00+21w46745 0.0 102081